カタログに戻る

STARLINK-4584

運用中通信VLEO
NORAD 53571·PAYLOAD·🇺🇸 United States

打ち上げ Aug 19, 2022 から Cape Canaveral Space Force Station

Loading…

次のパス (今後24時間)

TLE

最新Source: CelesTrak SupGP

元期: Sep 14, 2026, 21:16 UTC

1 53571C 22101AW  26257.88659722  .00042222  00000+0  12474-2 0  2574
2 53571  53.1561 270.1758 0001185  96.5269  18.3962 15.34369633    19

AllMySatでSTARLINK-4584をリアルタイム追跡

Download on the App Store